Regional Weather Roundup
Issued by NWS

Home | Current Version | Previous Version | Graphics & Text | Print | Product List | Glossary On
Versions: 1 2 3 4 5 6 7 8 9 10 11 12 13 14 15 16 17 18 19 20 21 22 23 24 25 26 27 28 29 30 31 32 33 34 35 36 37 38 39 40 41 42 43 44 45 46 47 48 49 50
667
ASUS44 KJAN 202110
RWRMS

MISSISSIPPI HOURLY WEATHER ROUNDUP
NATIONAL WEATHER SERVICE JACKSON MS
400 PM CDT SUN APR 20 2014

NOTE: "FAIR: INDICATES FEW OR NO CLOUDS BELOW 12,000 FEET WITH NO
SIGNIFICANT WEATHER AND/OR OBSTRUCTIONS TO VISIBILITY.

MSZ001>002-007>008-010>013-018>021-025>028-034>036-202200-
NORTHWEST MISSISSIPPI

CITY           SKY/WX    TMP DP  RH WIND       PRES   REMARKS
CLARKSDALE       N/A     81  50  34 S9        30.12F
CLEVELAND      FAIR      79  51  37 S10       30.11F
GREENWOOD      CLOUDY    81  49  32 VRB6      30.12F
GREENVILLE     MOSUNNY   80  49  33 S6        30.10F
GRENADA        FAIR      79  45  29 E5        30.13F
OLIVE BRANCH   MOSUNNY   79  46  31 CALM      30.12F
OXFORD         LGT RAIN  77  45  31 SW8       30.14F
TUNICA         PTCLDY    79  46  31 S9        30.12F
$$

MSZ003>006-009-014>017-022>024-029>033-037>039-202200-
NORTHEAST MISSISSIPPI

CITY           SKY/WX    TMP DP  RH WIND       PRES   REMARKS
BELMONT        FAIR      77  47  33 CALM      30.13F
COLUMBUS AFB   MOSUNNY   79  45  29 NW3       30.14F
CORINTH        FAIR      79  39  24 CALM      30.13F
GOLDN TRIANGLE SUNNY     75  48  38 S7        30.17F
STARKVILLE     FAIR      73  46  38 E3        30.14F
TUPELO         SUNNY     77  44  30 SE5       30.13F
$$

MSZ040-058-202200-
CENTRAL MISSISSIPPI

CITY           SKY/WX    TMP DP  RH WIND       PRES   REMARKS
JACKSON INTL   MOSUNNY   80  46  30 VRB6      30.12F
JACKSON HAWKNS SUNNY     82  47  29 CALM      30.12F
MERIDIAN KEY   SUNNY     77  48  35 VRB5      30.13F
MERIDIAN NAS   MOSUNNY   77  48  35 NE8       30.14F
RAYMOND        FAIR      81  75  83 S3        30.12F
VICKSBURG      SUNNY     81  51  35 E7        30.11F
$$

MSZ059>079-202200-
SOUTH MISSISSIPPI

CITY           SKY/WX    TMP DP  RH WIND       PRES   REMARKS
BROOKHAVEN     FAIR      81  52  36 E5        30.13F
COLUMBIA       FAIR      81  52  36 MISG      30.11F
HATTIESBURG    SUNNY     79  49  34 NE9G16    30.12F
MCCOMB         SUNNY     80  48  32 CALM      30.11F
NATCHEZ        SUNNY     81  48  32 CALM      30.11F
PINE BELT      SUNNY     79  48  34 NE9       30.14F
$$

MSZ080>082-202200-
COASTAL MISSISSIPPI

CITY           SKY/WX    TMP DP  RH WIND       PRES   REMARKS
BAY ST LOUIS   MOSUNNY   79  57  47 S8        30.11F
BILOXI         SUNNY     69  59  70 S12       30.13F
PASCAGOULA     MOSUNNY   76  58  53 SW9       30.11F
GULFPORT       SUNNY     72  59  63 SE13      30.12F
$$



USA.gov is the U.S. government's official web portal to all federal, state and local government web resources and services.